Flag for Afghanistan Weather past 2 weeks in Kabul, Afghanistan

Now
81 °F

Warm.


Feels Like: 83 °F
Forecast: 55 / 89 °F
Wind: N/A

Location: Peshawar Airport

Current Time: Sep 22, 2014 at 1:19:59 AM

Latest Report: Sep 22, 2014 at 12:30 AM


Visibility: N/A

Pressure: 29.65 "Hg

Humidity: 62%

Dew point: 66 °F

Location of KabulLocation

Historic Weather in Kabul — Graph

°F

Kabul temperature yesterday

Maximum temperature yesterday: 95 °F (at 1:30 PM)
Minimum temperature yesterday: 77 °F (at 5:30 AM)
Average temperature yesterday: 85 °F

Past Weeks' High & Low Weather Summary

 TemperatureHumidityPressure
High99 °F (Sep 8, 3:30 PM)79% (Sep 18, 4:30 AM)29.80 "Hg (Sep 18, 4:30 AM)
Low75 °F (Sep 8, 2:30 AM)35% (Sep 20, 3:30 PM)29.56 "Hg (Sep 9, 4:30 PM)
Average85 °F58%29.68 "Hg
* Reported Sep 7 12:30 AM — Sep 22 12:30 AM, Kabul, Weather by CustomWeather, © 2014

Note: Actual official high and low records may vary slightly from our data, if they occured in-between our weather recording intervals... More about our weather records

Advertising

Kabul weather history for previous 24 hours

 ConditionsComfort  
Time TempWeatherWind HumidityBarometerVisibility
12:30 AM
Sep 22
81 °FWarm.N/A62%29.65 "HgN/A
11:30 PM
Sep 21
81 °FWarm.N/A62%29.65 "HgN/A
10:30 PM82 °FWarm.N/A58%29.68 "HgN/A
9:30 PM84 °FClear.No wind55%29.68 "Hg2 mi
8:30 PM84 °FClear.No wind51%29.68 "Hg2 mi
7:30 PM86 °FHaze.5 mph52%29.65 "Hg2 mi
6:30 PM88 °FWarm.N/A49%29.65 "HgN/A
5:30 PM90 °FHot.N/A46%29.62 "HgN/A
4:30 PM93 °FExtremely hot.N/A41%29.59 "HgN/A
3:30 PM95 °FExtremely hot.N/A41%29.59 "HgN/A
2:30 PM95 °FHaze.7 mph41%29.62 "Hg2 mi
1:30 PM95 °FExtremely hot.N/A41%29.65 "HgN/A
12:30 PM91 °FHot.N/A44%29.71 "HgN/A
11:30 AM90 °FHot.N/A43%29.74 "HgN/A
10:30 AM86 °FWarm.N/A52%29.77 "HgN/A
9:30 AM84 °FWarm.N/A58%29.77 "HgN/A
8:30 AM82 °FWarm.N/A66%29.77 "HgN/A
7:30 AM79 °FWarm.N/A65%29.77 "HgN/A
6:30 AM77 °FWarm.N/A69%29.74 "HgN/A
5:30 AM77 °FWarm.N/A74%29.71 "HgN/A
4:29 AM79 °FWarm.N/A74%29.71 "HgN/A
3:30 AM79 °FWarm.N/A74%29.68 "HgN/A
2:30 AM79 °FWarm.N/A74%29.65 "HgN/A
1:30 AM81 °FWarm.N/A70%29.62 "HgN/A
Weather by CustomWeather, © 2014

See weather overviewHow to use our weather pages